EN

Hourly Weather Amatrice

Today, 16 January, Saturday

Time Temperature Precipitation Wind Pressure Humidity
00:00 -8°C° 0 mm 2 mps 640 mmHg 93%
01:00 -9°C° 0 mm 2 mps 639 mmHg 93%
02:00 -9°C° 0.1 mm 2 mps 639 mmHg 93%
03:00 -9°C° 0.1 mm 2 mps 639 mmHg 92%
04:00 -9°C° 0.1 mm 2 mps 639 mmHg 92%
05:00 -9°C° 0 mm 2 mps 640 mmHg 92%
06:00 -9°C° 0 mm 2 mps 640 mmHg 91%
07:00 -10°C° 0 mm 2 mps 640 mmHg 92%
08:00 -9°C° 0.1 mm 2 mps 641 mmHg 90%
09:00 -8°C° 0.1 mm 2 mps 642 mmHg 88%
10:00 -7°C° 0.1 mm 2 mps 642 mmHg 85%
11:00 -6°C° 0.1 mm 2 mps 643 mmHg 82%
12:00 -6°C° 0.1 mm 2 mps 643 mmHg 79%
13:00 -5°C° 0.1 mm 2 mps 643 mmHg 76%
14:00 -6°C° 0 mm 2 mps 643 mmHg 78%
15:00 -7°C° 0 mm 2 mps 643 mmHg 80%
16:00 -6°C° 0 mm 1 mps 643 mmHg 81%
17:00 -8°C° 0 mm 1 mps 642 mmHg 83%
18:00 -9°C° 0 mm 1 mps 642 mmHg 84%
19:00 -11°C° 0 mm 1 mps 641 mmHg 85%
20:00 -11°C° 0 mm 1 mps 641 mmHg 82%
21:00 -11°C° 0 mm 1 mps 641 mmHg 78%
22:00 -11°C° 0 mm 1 mps 641 mmHg 75%
23:00 -13°C° 0 mm 2 mps 641 mmHg 72%

Tomorrow, 17 January, Sunday

Time Temperature Precipitation Wind Pressure Humidity
00:00 -13°C° 0 mm 2 mps 641 mmHg 69%
01:00 -12°C° 0 mm 2 mps 641 mmHg 66%
02:00 -12°C° 0 mm 2 mps 641 mmHg 71%
03:00 -12°C° 0 mm 2 mps 640 mmHg 75%
04:00 -12°C° 0 mm 2 mps 640 mmHg 80%
05:00 -10°C° 0 mm 2 mps 640 mmHg 83%
06:00 -9°C° 0 mm 2 mps 640 mmHg 86%
07:00 -8°C° 0 mm 2 mps 640 mmHg 89%
08:00 -7°C° 0 mm 2 mps 640 mmHg 86%
09:00 -4°C° 0 mm 1 mps 641 mmHg 84%
10:00 -4°C° 0 mm 1 mps 641 mmHg 81%
11:00 -3°C° 0 mm 1 mps 641 mmHg 81%
12:00 -2°C° 0 mm 1 mps 640 mmHg 80%
13:00 -2°C° 0 mm 1 mps 640 mmHg 79%
14:00 -2°C° 0.1 mm 1 mps 640 mmHg 82%
15:00 -2°C° 0.1 mm 1 mps 640 mmHg 85%
16:00 -3°C° 0.1 mm 1 mps 639 mmHg 87%
17:00 -4°C° 0 mm 1 mps 639 mmHg 88%
18:00 -6°C° 0 mm 1 mps 639 mmHg 88%
19:00 -7°C° 0 mm 1 mps 639 mmHg 89%
20:00 -8°C° 0 mm 1 mps 639 mmHg 89%
21:00 -9°C° 0 mm 2 mps 639 mmHg 88%
22:00 -9°C° 0 mm 2 mps 639 mmHg 88%
23:00 -9°C° 0 mm 2 mps 640 mmHg 88%

Day after tomorrow, 18 January, Monday

Time Temperature Precipitation Wind Pressure Humidity
00:00 -9°C° 0 mm 2 mps 640 mmHg 88%
01:00 -9°C° 0 mm 2 mps 641 mmHg 89%
02:00 -9°C° 0 mm 2 mps 641 mmHg 89%
03:00 -9°C° 0 mm 2 mps 641 mmHg 89%
04:00 -9°C° 0 mm 2 mps 641 mmHg 89%
05:00 -8°C° 0 mm 1 mps 642 mmHg 90%
06:00 -8°C° 0 mm 1 mps 642 mmHg 90%
07:00 -8°C° 0 mm 1 mps 643 mmHg 91%
08:00 -6°C° 0 mm 1 mps 644 mmHg 90%
09:00 -4°C° 0 mm 1 mps 645 mmHg 88%
10:00 -3°C° 0 mm 1 mps 646 mmHg 86%
11:00 -2°C° 0 mm 1 mps 646 mmHg 84%
12:00 -1°C° 0 mm 1 mps 646 mmHg 81%
13:00 -1°C° 0 mm 0 mps 647 mmHg 78%
14:00 -2°C° 0 mm 0 mps 647 mmHg 80%
15:00 -3°C° 0 mm 0 mps 646 mmHg 83%
16:00 -3°C° 0 mm 0 mps 646 mmHg 85%
17:00 -3°C° 0 mm 1 mps 646 mmHg 83%
18:00 -6°C° 0 mm 1 mps 646 mmHg 81%
19:00 -7°C° 0 mm 1 mps 646 mmHg 79%
20:00 -7°C° 0 mm 1 mps 646 mmHg 76%
21:00 -7°C° 0 mm 1 mps 646 mmHg 72%
22:00 -8°C° 0 mm 2 mps 646 mmHg 69%
23:00 -8°C° 0 mm 2 mps 646 mmHg 66%

19 January, Tuesday

Time Temperature Precipitation Wind Pressure Humidity
00:00 -8°C° 0 mm 1 mps 646 mmHg 64%
01:00 -8°C° 0 mm 1 mps 646 mmHg 62%
02:00 -8°C° 0 mm 1 mps 646 mmHg 62%
03:00 -8°C° 0 mm 1 mps 646 mmHg 62%
04:00 -8°C° 0 mm 1 mps 646 mmHg 63%
05:00 -8°C° 0 mm 1 mps 646 mmHg 64%
06:00 -8°C° 0 mm 1 mps 646 mmHg 66%
07:00 -8°C° 0 mm 1 mps 646 mmHg 67%
08:00 -6°C° 0 mm 1 mps 647 mmHg 67%
09:00 -4°C° 0 mm 1 mps 648 mmHg 68%
10:00 -2°C° 0 mm 1 mps 648 mmHg 68%
11:00 -1°C° 0 mm 1 mps 649 mmHg 70%
12:00 0°C° 0 mm 1 mps 649 mmHg 71%
13:00 0°C° 0 mm 1 mps 649 mmHg 73%
14:00 0°C° 0 mm 1 mps 648 mmHg 76%
15:00 -1°C° 0 mm 1 mps 648 mmHg 78%
16:00 -1°C° 0 mm 1 mps 647 mmHg 81%
17:00 -4°C° 0 mm 2 mps 647 mmHg 82%
18:00 -4°C° 0 mm 2 mps 647 mmHg 83%
19:00 -5°C° 0 mm 2 mps 647 mmHg 84%
20:00 -5°C° 0 mm 2 mps 647 mmHg 84%
21:00 -5°C° 0 mm 2 mps 647 mmHg 84%
22:00 -5°C° 0 mm 2 mps 647 mmHg 84%
23:00 -5°C° 0 mm 2 mps 647 mmHg 86%

20 January, Wednesday

Time Temperature Precipitation Wind Pressure Humidity
00:00 -5°C° 0 mm 2 mps 647 mmHg 88%
01:00 -4°C° 0 mm 2 mps 647 mmHg 90%
02:00 -4°C° 0 mm 2 mps 647 mmHg 90%
03:00 -4°C° 0 mm 2 mps 646 mmHg 91%
04:00 -4°C° 0 mm 2 mps 646 mmHg 91%
05:00 -4°C° 0 mm 2 mps 646 mmHg 92%
06:00 -5°C° 0 mm 2 mps 646 mmHg 92%
07:00 -5°C° 0 mm 2 mps 645 mmHg 92%
08:00 -4°C° 0 mm 2 mps 646 mmHg 91%
09:00 -3°C° 0 mm 2 mps 646 mmHg 91%
10:00 -2°C° 0 mm 2 mps 647 mmHg 90%
11:00 -1°C° 0 mm 2 mps 646 mmHg 88%
12:00 -1°C° 0 mm 2 mps 646 mmHg 87%
13:00 +1°C° 0 mm 2 mps 646 mmHg 85%
14:00 -1°C° 0 mm 2 mps 646 mmHg 87%
15:00 -1°C° 0 mm 2 mps 645 mmHg 88%
16:00 -1°C° 0 mm 2 mps 645 mmHg 90%
17:00 -2°C° 0 mm 2 mps 644 mmHg 88%
18:00 -2°C° 0 mm 2 mps 644 mmHg 87%
19:00 -3°C° 0 mm 2 mps 644 mmHg 86%
20:00 -3°C° 0 mm 2 mps 644 mmHg 87%
21:00 -3°C° 0 mm 2 mps 644 mmHg 87%
22:00 -2°C° 0 mm 2 mps 643 mmHg 88%
23:00 -2°C° 0 mm 2 mps 643 mmHg 90%

21 January, Thursday

Time Temperature Precipitation Wind Pressure Humidity
00:00 -2°C° 0 mm 3 mps 643 mmHg 91%
01:00 -2°C° 0 mm 3 mps 643 mmHg 93%
02:00 -2°C° 0 mm 3 mps 643 mmHg 93%
03:00 -2°C° 0 mm 3 mps 642 mmHg 93%
04:00 -2°C° 0 mm 3 mps 642 mmHg 93%
05:00 -2°C° 0 mm 3 mps 642 mmHg 93%
06:00 -2°C° 0 mm 3 mps 642 mmHg 92%
07:00 -2°C° 0 mm 3 mps 642 mmHg 92%
08:00 -1°C° 0 mm 3 mps 642 mmHg 92%
09:00 -1°C° 0 mm 3 mps 642 mmHg 92%
10:00 0°C° 0 mm 3 mps 642 mmHg 92%
11:00 0°C° 0.1 mm 3 mps 642 mmHg 92%
12:00 0°C° 0.1 mm 3 mps 642 mmHg 91%
13:00 +1°C° 0.1 mm 3 mps 642 mmHg 91%
14:00 +1°C° 0.2 mm 3 mps 642 mmHg 92%
15:00 +1°C° 0.2 mm 2 mps 641 mmHg 93%
16:00 +1°C° 0.2 mm 2 mps 641 mmHg 94%
17:00 +1°C° 0 mm 2 mps 641 mmHg 93%
18:00 -1°C° 0 mm 3 mps 641 mmHg 93%
19:00 -1°C° 0 mm 3 mps 641 mmHg 93%
20:00 -1°C° 0 mm 3 mps 641 mmHg 93%
21:00 -1°C° 0 mm 3 mps 641 mmHg 94%
22:00 0°C° 0 mm 3 mps 641 mmHg 94%
23:00 0°C° 0 mm 3 mps 641 mmHg 94%
Show more